When you browse on this site, cookies collect data to enhance your experience and personalize the content and advertising you see.
Visit our Privacy Policy to learn more. By continuing to use the site, you agree to this use of cookies and data.
  • In Hungary
  • List of Countries
  • For 7 days
  • Water Temperature
  • Weather Map
  • News
  • Weather Widgets
  • user-avatar
    Login

    Hourly Weather Wieszowa

    Today, 23 September, Monday

    Time Temperature Precipitation Wind Pressure Humidity
    00:00 +14°C° 0 mm 1 mps 736 mmHg 65%
    01:00 +13°C° 0 mm 1 mps 736 mmHg 70%
    02:00 +13°C° 0 mm 2 mps 736 mmHg 72%
    03:00 +13°C° 0 mm 2 mps 736 mmHg 74%
    04:00 +13°C° 0 mm 2 mps 735 mmHg 76%
    05:00 +13°C° 0 mm 2 mps 736 mmHg 74%
    06:00 +14°C° 0 mm 2 mps 736 mmHg 72%
    07:00 +14°C° 0 mm 2 mps 736 mmHg 69%
    08:00 +16°C° 0 mm 2 mps 736 mmHg 63%
    09:00 +17°C° 0 mm 3 mps 736 mmHg 57%
    10:00 +19°C° 0 mm 3 mps 736 mmHg 51%
    11:00 +20°C° 0 mm 3 mps 736 mmHg 49%
    12:00 +21°C° 0 mm 2 mps 736 mmHg 47%
    13:00 +23°C° 0 mm 2 mps 736 mmHg 45%
    14:00 +21°C° 0 mm 2 mps 736 mmHg 46%
    15:00 +21°C° 0 mm 2 mps 736 mmHg 47%
    16:00 +21°C° 0 mm 2 mps 736 mmHg 49%
    17:00 +19°C° 0 mm 2 mps 736 mmHg 54%
    18:00 +18°C° 0 mm 2 mps 736 mmHg 59%
    19:00 +16°C° 0 mm 2 mps 736 mmHg 64%
    20:00 +15°C° 0 mm 2 mps 736 mmHg 66%
    21:00 +15°C° 0 mm 2 mps 736 mmHg 68%
    22:00 +14°C° 0 mm 2 mps 736 mmHg 70%
    23:00 +14°C° 0 mm 2 mps 737 mmHg 74%

    Tomorrow, 24 September, Tuesday

    Time Temperature Precipitation Wind Pressure Humidity
    00:00 +13°C° 0 mm 2 mps 737 mmHg 77%
    01:00 +13°C° 0 mm 2 mps 737 mmHg 80%
    02:00 +13°C° 0 mm 2 mps 737 mmHg 82%
    03:00 +12°C° 0 mm 2 mps 736 mmHg 84%
    04:00 +12°C° 0 mm 2 mps 736 mmHg 86%
    05:00 +12°C° 0 mm 2 mps 736 mmHg 85%
    06:00 +13°C° 0 mm 2 mps 736 mmHg 83%
    07:00 +13°C° 0 mm 2 mps 736 mmHg 82%
    08:00 +15°C° 0 mm 2 mps 736 mmHg 74%
    09:00 +17°C° 0 mm 2 mps 736 mmHg 66%
    10:00 +18°C° 0 mm 2 mps 737 mmHg 58%
    11:00 +20°C° 0 mm 2 mps 736 mmHg 52%
    12:00 +21°C° 0 mm 2 mps 736 mmHg 47%
    13:00 +22°C° 0 mm 3 mps 736 mmHg 41%
    14:00 +22°C° 0 mm 3 mps 735 mmHg 43%
    15:00 +21°C° 0 mm 3 mps 735 mmHg 45%
    16:00 +21°C° 0 mm 3 mps 735 mmHg 47%
    17:00 +20°C° 0 mm 3 mps 735 mmHg 52%
    18:00 +18°C° 0 mm 3 mps 734 mmHg 58%
    19:00 +16°C° 0 mm 3 mps 734 mmHg 63%
    20:00 +16°C° 0 mm 3 mps 734 mmHg 66%
    21:00 +15°C° 0 mm 2 mps 734 mmHg 68%
    22:00 +15°C° 0 mm 2 mps 734 mmHg 71%
    23:00 +15°C° 0 mm 2 mps 734 mmHg 73%

    Day after tomorrow, 25 September, Wednesday

    Time Temperature Precipitation Wind Pressure Humidity
    00:00 +15°C° 0 mm 2 mps 734 mmHg 75%
    01:00 +14°C° 0 mm 2 mps 733 mmHg 77%
    02:00 +15°C° 0 mm 2 mps 733 mmHg 76%
    03:00 +15°C° 0 mm 2 mps 733 mmHg 75%
    04:00 +15°C° 0 mm 2 mps 733 mmHg 75%
    05:00 +15°C° 0 mm 2 mps 732 mmHg 74%
    06:00 +15°C° 0 mm 2 mps 732 mmHg 73%
    07:00 +16°C° 0 mm 3 mps 732 mmHg 72%
    08:00 +16°C° 0.3 mm 3 mps 732 mmHg 74%
    09:00 +16°C° 0.3 mm 3 mps 732 mmHg 76%
    10:00 +16°C° 0.3 mm 3 mps 732 mmHg 79%
    11:00 +17°C° 0.1 mm 3 mps 732 mmHg 73%
    12:00 +18°C° 0.1 mm 4 mps 732 mmHg 67%
    13:00 +19°C° 0.1 mm 4 mps 732 mmHg 62%
    14:00 +19°C° 0.3 mm 3 mps 732 mmHg 63%
    15:00 +19°C° 0.3 mm 3 mps 732 mmHg 65%
    16:00 +19°C° 0.3 mm 3 mps 731 mmHg 67%
    17:00 +18°C° 0.2 mm 3 mps 732 mmHg 71%
    18:00 +17°C° 0.2 mm 3 mps 732 mmHg 75%
    19:00 +16°C° 0.2 mm 3 mps 732 mmHg 80%
    20:00 +16°C° 0 mm 3 mps 732 mmHg 79%
    21:00 +14°C° 0 mm 3 mps 732 mmHg 78%
    22:00 +14°C° 0 mm 3 mps 732 mmHg 77%
    23:00 +14°C° 0 mm 3 mps 732 mmHg 78%

    26 September, Thursday

    Time Temperature Precipitation Wind Pressure Humidity
    00:00 +13°C° 0 mm 3 mps 732 mmHg 80%
    01:00 +13°C° 0 mm 3 mps 732 mmHg 81%
    02:00 +12°C° 0 mm 3 mps 733 mmHg 82%
    03:00 +13°C° 0 mm 2 mps 733 mmHg 83%
    04:00 +13°C° 0 mm 2 mps 733 mmHg 84%
    05:00 +13°C° 0 mm 2 mps 733 mmHg 83%
    06:00 +13°C° 0 mm 2 mps 733 mmHg 81%
    07:00 +13°C° 0 mm 2 mps 733 mmHg 80%
    08:00 +13°C° 0 mm 3 mps 734 mmHg 76%
    09:00 +14°C° 0 mm 3 mps 734 mmHg 72%
    10:00 +16°C° 0 mm 3 mps 735 mmHg 69%
    11:00 +17°C° 0.2 mm 3 mps 735 mmHg 65%
    12:00 +18°C° 0.2 mm 3 mps 735 mmHg 61%
    13:00 +19°C° 0.2 mm 3 mps 735 mmHg 58%
    14:00 +18°C° 0.3 mm 2 mps 735 mmHg 59%
    15:00 +18°C° 0.3 mm 2 mps 735 mmHg 61%
    16:00 +18°C° 0.3 mm 2 mps 735 mmHg 62%
    17:00 +17°C° 0.1 mm 2 mps 735 mmHg 67%
    18:00 +16°C° 0.1 mm 1 mps 735 mmHg 72%
    19:00 +15°C° 0.1 mm 1 mps 736 mmHg 77%
    20:00 +14°C° 0 mm 1 mps 736 mmHg 79%
    21:00 +14°C° 0 mm 1 mps 736 mmHg 80%
    22:00 +13°C° 0 mm 1 mps 737 mmHg 82%
    23:00 +13°C° 0 mm 1 mps 737 mmHg 83%

    27 September, Friday

    Time Temperature Precipitation Wind Pressure Humidity
    00:00 +13°C° 0 mm 1 mps 737 mmHg 84%
    01:00 +13°C° 0 mm 1 mps 737 mmHg 86%
    02:00 +12°C° 0 mm 1 mps 737 mmHg 87%
    03:00 +12°C° 0 mm 1 mps 737 mmHg 88%
    04:00 +12°C° 0 mm 1 mps 737 mmHg 89%
    05:00 +12°C° 0 mm 1 mps 737 mmHg 87%
    06:00 +13°C° 0 mm 2 mps 737 mmHg 86%
    07:00 +13°C° 0 mm 2 mps 737 mmHg 85%
    08:00 +15°C° 0 mm 2 mps 737 mmHg 78%
    09:00 +17°C° 0 mm 3 mps 737 mmHg 72%
    10:00 +18°C° 0 mm 3 mps 738 mmHg 65%
    11:00 +19°C° 0 mm 3 mps 737 mmHg 62%
    12:00 +20°C° 0 mm 3 mps 737 mmHg 58%
    13:00 +21°C° 0 mm 3 mps 737 mmHg 55%
    14:00 +21°C° 0.1 mm 3 mps 737 mmHg 59%
    15:00 +20°C° 0.1 mm 3 mps 737 mmHg 63%
    16:00 +19°C° 0.1 mm 3 mps 737 mmHg 68%
    17:00 +19°C° 0.1 mm 3 mps 737 mmHg 72%
    18:00 +18°C° 0.1 mm 2 mps 737 mmHg 76%
    19:00 +17°C° 0.1 mm 2 mps 737 mmHg 80%
    20:00 +17°C° 0.2 mm 2 mps 737 mmHg 82%
    21:00 +17°C° 0.2 mm 3 mps 737 mmHg 84%
    22:00 +16°C° 0.2 mm 3 mps 737 mmHg 86%
    23:00 +16°C° 0.1 mm 3 mps 737 mmHg 86%

    28 September, Saturday

    Time Temperature Precipitation Wind Pressure Humidity
    00:00 +16°C° 0.1 mm 3 mps 737 mmHg 86%
    01:00 +16°C° 0.1 mm 3 mps 737 mmHg 86%
    02:00 +16°C° 0.1 mm 3 mps 737 mmHg 85%
    03:00 +16°C° 0.1 mm 3 mps 737 mmHg 85%
    04:00 +16°C° 0.1 mm 3 mps 737 mmHg 84%
    05:00 +16°C° 0 mm 3 mps 737 mmHg 83%
    06:00 +16°C° 0 mm 3 mps 737 mmHg 83%
    07:00 +16°C° 0 mm 3 mps 737 mmHg 82%
    08:00 +17°C° 0 mm 4 mps 737 mmHg 77%
    09:00 +18°C° 0 mm 4 mps 737 mmHg 71%
    10:00 +20°C° 0 mm 5 mps 738 mmHg 66%
    11:00 +19°C° 0.3 mm 4 mps 737 mmHg 70%
    12:00 +18°C° 0.3 mm 4 mps 737 mmHg 73%
    13:00 +18°C° 0.3 mm 3 mps 737 mmHg 77%
    14:00 +18°C° 0.1 mm 4 mps 737 mmHg 73%
    15:00 +18°C° 0.1 mm 4 mps 737 mmHg 69%
    16:00 +19°C° 0.1 mm 5 mps 737 mmHg 65%
    17:00 +18°C° 0 mm 4 mps 737 mmHg 68%
    18:00 +17°C° 0 mm 4 mps 737 mmHg 71%
    19:00 +15°C° 0 mm 4 mps 737 mmHg 74%
    20:00 +16°C° 0 mm 3 mps 737 mmHg 75%
    21:00 +14°C° 0 mm 3 mps 738 mmHg 76%
    22:00 +14°C° 0 mm 3 mps 738 mmHg 78%
    23:00 +13°C° 0 mm 3 mps 738 mmHg 78%
    Show more